Location: Bovenkerk
(52.2915°N, 4.8336°E)
Time: 17:34:18
(UTC+00:00)

SL-08 R/B - Pass Details

Date: 09 April 2020
Orbit: 951 x 1017 km, 82.9° (Epoch: 01 June)

Event Time Altitude Azimuth Distance (km) Brightness Sun altitude
Rises 20:24:18 0° 350° (N) 3,643 8.3 -16.5°
Reaches altitude 10° 20:26:49 10° 353° (N) 2,697 7.5 -16.8°
Maximum altitude 20:32:59 71° 77° (ENE) 1,016 4.4 -17.5°
Enters shadow 20:36:45 25° 157° (SSE) 1,841 5.4 -18.0°
